| time (UTC) | temp F | wind direction | speed knots | gust knots | rain 1hr in | rain 24hr in | rain mn in | humidity % | barometer mb |
| 20260502205106 | 46 | 327 | 3.5 | 9.6 | 0.00 | 0.00 | 0.00 | 49 | 1014.7 |
| 20260502204107 | 45 | 340 | 3.5 | 6.1 | 0.00 | 0.00 | 0.00 | 49 | 1014.9 |
| 20260502203106 | 45 | 275 | 1.7 | 7.8 | 0.00 | 0.00 | 0.00 | 49 | 1015.0 |
| 20260502202104 | 45 | 286 | 1.7 | 9.6 | 0.00 | 0.00 | 0.00 | 49 | 1015.0 |
| 20260502201107 | 46 | 325 | 3.5 | 9.6 | 0.00 | 0.00 | 0.00 | 50 | 1015.1 |
| 20260502200106 | 46 | 0 | 3.5 | 10.4 | 0.00 | 0.00 | 0.00 | 49 | 1015.2 |
| 20260502195102 | 46 | 325 | 1.7 | 10.4 | 0.00 | 0.00 | 0.00 | 49 | 1015.4 |
| 20260502194101 | 47 | 344 | 1.7 | 7.8 | 0.00 | 0.00 | 0.00 | 49 | 1015.4 |
| 20260502193104 | 45 | 239 | 1.7 | 9.6 | 0.00 | 0.00 | 0.00 | 50 | 1015.6 |
| 20260502192101 | 45 | 351 | 1.7 | 7.8 | 0.00 | 0.00 | 0.00 | 48 | 1015.6 |
| 20260502191100 | 45 | 333 | 1.7 | 9.6 | 0.00 | 0.00 | 0.00 | 50 | 1015.7 |
| 20260502190104 | 46 | 345 | 1.7 | 6.1 | 0.00 | 0.00 | 0.00 | 49 | 1015.8 |
| 20260502185104 | 46 | 267 | 3.5 | 7.8 | 0.00 | 0.00 | 0.00 | 48 | 1015.8 |
| 20260502184102 | 46 | 300 | 3.5 | 6.1 | 0.00 | 0.00 | 0.00 | 49 | 1015.9 |
| 20260502183100 | 45 | 348 | 3.5 | 6.1 | 0.00 | 0.00 | 0.00 | 50 | 1016.0 |
| 20260502182103 | 45 | 194 | 3.5 | 6.1 | 0.00 | 0.00 | 0.00 | 50 | 1016.0 |
| 20260502181102 | 44 | 323 | 3.5 | 10.4 | 0.00 | 0.00 | 0.00 | 52 | 1016.1 |
| 20260502164059 | 43 | 268 | 3.5 | 7.8 | 0.00 | 0.00 | 0.00 | 49 | 1016.4 |
| 20260502163056 | 44 | 334 | 4.3 | 15.6 | 0.00 | 0.00 | 0.00 | 49 | 1016.4 |
| 20260502162058 | 44 | 267 | 3.5 | 9.6 | 0.00 | 0.00 | 0.00 | 50 | 1016.4 |
| 20260502161058 | 42 | 327 | 3.5 | 9.6 | 0.00 | 0.00 | 0.00 | 51 | 1016.5 |
| 20260502160123 | 43 | 275 | 3.5 | 7.8 | 0.00 | 0.00 | 0.00 | 50 | 1016.6 |
| 20260502152053 | 41 | 355 | 3.5 | 9.6 | 0.00 | 0.00 | 0.00 | 54 | 1016.6 |
| 20260502151051 | 41 | 293 | 3.5 | 9.6 | 0.00 | 0.00 | 0.00 | 55 | 1016.5 |
| 20260502123044 | 37 | 332 | 3.5 | 6.1 | 0.00 | 0.00 | 0.00 | 76 | 1016.6 |
| 20260502122044 | 37 | 253 | 1.7 | 6.1 | 0.00 | 0.00 | 0.00 | 78 | 1016.6 |
| 20260502121043 | 37 | 292 | 1.7 | 6.1 | 0.00 | 0.00 | 0.00 | 81 | 1016.6 |
| 20260502115046 | 36 | 304 | 1.7 | 4.3 | 0.00 | 0.00 | 0.00 | 86 | 1016.5 |
| 20260502114040 | 36 | 293 | 1.7 | 6.1 | 0.00 | 0.00 | 0.00 | 87 | 1016.5 |
| 20260502113034 | 35 | 0 | 0.0 | 4.3 | 0.00 | 0.00 | 0.00 | 89 | 1016.4 |
| 20260502112038 | 34 | 49 | 0.0 | 0.0 | 0.00 | 0.00 | 0.00 | 90 | 1016.3 |
| 20260502111034 | 34 | 49 | 0.0 | 0.0 | 0.00 | 0.00 | 0.00 | 90 | 1016.3 |
| 20260502110036 | 34 | 49 | 0.0 | 0.0 | 0.00 | 0.00 | 0.00 | 90 | 1016.3 |
| 20260502105030 | 33 | 49 | 0.0 | 0.0 | 0.00 | 0.00 | 0.00 | 90 | 1016.2 |
| 20260502104032 | 33 | 49 | 0.0 | 0.0 | 0.00 | 0.00 | 0.00 | 90 | 1016.1 |
| 20260502103031 | 32 | 49 | 0.0 | 0.0 | 0.00 | 0.00 | 0.00 | 89 | 1016.1 |
| 20260502102031 | 33 | 49 | 0.0 | 0.0 | 0.00 | 0.00 | 0.00 | 89 | 1016.0 |
| 20260502101032 | 33 | 49 | 0.0 | 0.0 | 0.00 | 0.00 | 0.00 | 88 | 1016.0 |
| 20260502091030 | 35 | 49 | 0.0 | 0.0 | 0.00 | 0.00 | 0.00 | 85 | 1015.8 |
| 20260502071017 | 36 | 49 | 0.0 | 0.0 | 0.00 | 0.00 | 0.00 | 78 | 1015.5 |
| 20260502070017 | 36 | 49 | 0.0 | 0.0 | 0.00 | 0.00 | 0.00 | 79 | 1015.7 |
| 20260502065019 | 36 | 49 | 0.0 | 0.0 | 0.00 | 0.00 | 0.00 | 81 | 1015.7 |
| 20260502064019 | 36 | 49 | 0.0 | 0.0 | 0.00 | 0.00 | 0.00 | 80 | 1015.8 |
| 20260502063018 | 36 | 49 | 0.0 | 0.0 | 0.00 | 0.00 | 0.00 | 79 | 1015.9 |
| 20260502062020 | 36 | 49 | 0.0 | 0.0 | 0.00 | 0.00 | 0.00 | 79 | 1016.0 |
| 20260502061017 | 36 | 49 | 0.0 | 0.0 | 0.00 | 0.00 | 0.00 | 78 | 1016.1 |
| 20260502060018 | 36 | 49 | 0.0 | 0.0 | 0.00 | 0.00 | 0.00 | 79 | 1016.2 |
| 20260502055020 | 37 | 49 | 0.0 | 0.0 | 0.00 | 0.00 | 0.00 | 78 | 1016.1 |
| 20260502054013 | 37 | 49 | 0.0 | 0.0 | 0.00 | 0.00 | 0.00 | 79 | 1016.2 |
| 20260502053012 | 36 | 49 | 0.0 | 0.0 | 0.00 | 0.00 | 0.00 | 79 | 1016.3 |
| 20260502052015 | 36 | 49 | 0.0 | 0.0 | 0.00 | 0.00 | 0.00 | 80 | 1016.2 |
| 20260502051013 | 36 | 40 | 0.0 | 0.0 | 0.00 | 0.00 | 0.00 | 81 | 1016.1 |
| 20260502050014 | 37 | 40 | 0.0 | 1.7 | 0.00 | 0.00 | 0.00 | 81 | 1016.0 |
| 20260502045012 | 37 | 40 | 0.0 | 3.5 | 0.00 | 0.00 | 0.00 | 81 | 1015.9 |
| 20260502044010 | 37 | 50 | 0.0 | 0.0 | 0.00 | 0.00 | 0.00 | 81 | 1015.9 |
| 20260502043010 | 37 | 56 | 0.0 | 0.0 | 0.00 | 0.00 | 0.00 | 80 | 1015.7 |
| 20260502042011 | 37 | 59 | 0.0 | 3.5 | 0.00 | 0.00 | 0.00 | 79 | 1015.8 |
| 20260502041001 | 37 | 86 | 0.0 | 3.5 | 0.00 | 0.00 | 0.00 | 79 | 1015.7 |
| 20260502040004 | 37 | 69 | 0.0 | 0.0 | 0.00 | 0.00 | 0.00 | 78 | 1015.7 |
| 20260502035001 | 37 | 88 | 0.0 | 0.0 | 0.00 | 0.00 | 0.00 | 79 | 1015.7 |
| 20260502034005 | 37 | 88 | 0.0 | 0.0 | 0.00 | 0.00 | 0.00 | 78 | 1015.5 |
| 20260502033004 | 37 | 88 | 0.0 | 0.0 | 0.00 | 0.00 | 0.00 | 78 | 1015.5 |
| 20260502032004 | 38 | 88 | 0.0 | 0.0 | 0.00 | 0.00 | 0.00 | 78 | 1015.5 |
| 20260502030958 | 38 | 87 | 0.0 | 0.0 | 0.00 | 0.00 | 0.00 | 77 | 1015.4 |
| 20260502025959 | 38 | 85 | 0.0 | 3.5 | 0.00 | 0.00 | 0.00 | 77 | 1015.5 |
| 20260502025002 | 38 | 64 | 0.0 | 4.3 | 0.00 | 0.00 | 0.00 | 76 | 1015.5 |
| 20260502024000 | 38 | 61 | 0.0 | 3.5 | 0.00 | 0.00 | 0.00 | 77 | 1015.2 |
| 20260502023001 | 38 | 47 | 0.0 | 4.3 | 0.00 | 0.00 | 0.00 | 76 | 1015.4 |
| 20260502022000 | 38 | 82 | 0.0 | 6.1 | 0.00 | 0.00 | 0.00 | 76 | 1015.2 |
| 20260502021003 | 39 | 85 | 1.7 | 6.1 | 0.00 | 0.00 | 0.00 | 75 | 1015.2 |
| 20260502020000 | 39 | 35 | 1.7 | 4.3 | 0.00 | 0.00 | 0.00 | 75 | 1015.2 |
| 20260502015008 | 39 | 45 | 1.7 | 6.1 | 0.00 | 0.00 | 0.00 | 74 | 1015.1 |
| 20260502013953 | 40 | 44 | 1.7 | 6.1 | 0.00 | 0.00 | 0.00 | 72 | 1015.0 |
| 20260502012956 | 41 | 349 | 3.5 | 9.6 | 0.00 | 0.00 | 0.00 | 70 | 1014.8 |
| 20260502011956 | 42 | 321 | 0.0 | 1.7 | 0.00 | 0.00 | 0.00 | 67 | 1014.4 |
| 20260502010954 | 42 | 321 | 0.0 | 3.5 | 0.00 | 0.00 | 0.00 | 66 | 1014.2 |
| 20260502005957 | 42 | 316 | 0.0 | 1.7 | 0.00 | 0.00 | 0.00 | 66 | 1014.2 |
| 20260502004953 | 42 | 314 | 0.0 | 3.5 | 0.00 | 0.00 | 0.00 | 65 | 1014.2 |
| 20260502003952 | 42 | 319 | 0.0 | 3.5 | 0.00 | 0.00 | 0.00 | 65 | 1014.2 |
| 20260502002952 | 43 | 331 | 1.7 | 4.3 | 0.00 | 0.00 | 0.00 | 64 | 1014.1 |
| 20260502002000 | 43 | 345 | 1.7 | 6.1 | 0.00 | 0.00 | 0.00 | 64 | 1014.0 |
| 20260502000957 | 43 | 333 | 1.7 | 4.3 | 0.00 | 0.00 | 0.00 | 65 | 1014.0 |
| 20260501235957 | 43 | 336 | 1.7 | 4.3 | 0.00 | 0.00 | 0.00 | 65 | 1013.9 |
| 20260501235000 | 43 | 328 | 1.7 | 4.3 | 0.00 | 0.00 | 0.00 | 64 | 1013.9 |
| 20260501234001 | 43 | 286 | 1.7 | 6.1 | 0.00 | 0.00 | 0.00 | 64 | 1013.8 |
| 20260501232945 | 44 | 309 | 3.5 | 6.1 | 0.00 | 0.00 | 0.00 | 64 | 1013.8 |
| 20260501231944 | 44 | 277 | 1.7 | 7.8 | 0.00 | 0.00 | 0.00 | 64 | 1013.8 |
| 20260501230945 | 44 | 315 | 1.7 | 6.1 | 0.00 | 0.00 | 0.00 | 63 | 1013.8 |
| 20260501225944 | 44 | 286 | 1.7 | 6.1 | 0.00 | 0.00 | 0.00 | 63 | 1013.8 |
| 20260501224945 | 44 | 333 | 3.5 | 6.1 | 0.00 | 0.00 | 0.00 | 62 | 1013.7 |
| 20260501223946 | 44 | 321 | 3.5 | 9.6 | 0.00 | 0.00 | 0.00 | 61 | 1013.7 |
| 20260501222945 | 44 | 345 | 3.5 | 6.1 | 0.00 | 0.00 | 0.00 | 61 | 1013.7 |
| 20260501221953 | 45 | 293 | 3.5 | 6.1 | 0.00 | 0.00 | 0.00 | 60 | 1013.6 |
| 20260501220954 | 45 | 328 | 1.7 | 4.3 | 0.00 | 0.00 | 0.00 | 60 | 1013.6 |
| 20260501215957 | 45 | 342 | 3.5 | 7.8 | 0.00 | 0.00 | 0.00 | 59 | 1013.5 |
| 20260501214949 | 46 | 330 | 3.5 | 7.8 | 0.00 | 0.00 | 0.00 | 58 | 1013.5 |
| 20260501213955 | 45 | 342 | 3.5 | 7.8 | 0.00 | 0.00 | 0.00 | 59 | 1013.3 |
| 20260501212951 | 45 | 280 | 1.7 | 6.1 | 0.00 | 0.00 | 0.00 | 59 | 1013.3 |
| 20260501211947 | 45 | 350 | 3.5 | 7.8 | 0.00 | 0.00 | 0.00 | 59 | 1013.2 |
| 20260501210942 | 46 | 315 | 1.7 | 9.6 | 0.00 | 0.00 | 0.00 | 57 | 1013.1 |
| 20260501205946 | 46 | 355 | 1.7 | 6.1 | 0.00 | 0.00 | 0.00 | 56 | 1013.0 |